Погода в Махадзанге

Мадагаскар     15°42′33″S   46°19′12″E
темп.,
°C
ветер,
м/с
пор.,
м/с
влажн.,
%
обл.,
%
осадки,
мм/ч
давл.,
гПа
погр.,
м
1 марта, пн
пн100:00+27ссв478387 2.7 1008402
03:00+27св468592 5.4 1007339
06:00+26всв358885 0.3 1007318
09:00+28всв467788 2.4 1009586
12:00+30св577157 6.0 1008868
15:00+30ссв456757 7.6 1007592
18:00+29ссв357531 0.1 1007394
21:00+28ссв357763 0.5 1009285
2 марта, вт
вт200:00+26ссз458399 5.3 1009200
03:00+25ссв698988 7.2 1009353
06:00+25в3687100 0.5 1009328
09:00+28в577479 0.5 1011610
12:00+31всв45649 0.0 10091078
15:00+29с667732 5.6 1007458
18:00+27с3582100 4.3 1008308
21:00+27с468198 7.9 1010320
3 марта, ср
ср300:00+27св4781100 6.1 1009309
03:00+25всв588699 10.0 1008310
06:00+25всв588687 1.3 1008327
09:00+27всв577771 1.8 1010533
12:00+30св566967 0.8 1008944
15:00+29ссв577475 4.8 1006533
18:00+28ссз467883 3.0 1007353
21:00+28ссз478091 10.1 1008364
4 марта, чт
чт400:00+27с4681100 8.2 1007283
03:00+27зсз0282100 16.2 1007149
06:00+25вюв1390100 5.3 1007154
09:00+24з3593100 26.8 1009296
12:00+26с4785100 7.2 1008647
15:00+26ссз71086100 11.9 1006838
18:00+26сз71092100 11.3 1007629
21:00+26зсз5785100 22.9 1008535
5 марта, пт
пт500:00+26ссз3483100 2.1 1008288
03:00+26ссз4686100 5.7 1006387
06:00+26с4686100 2.9 1008347
09:00+26ссз4686100 8.6 1009449
12:00+25сз6994100 11.8 1008545
15:00+26сз71089100 30.6 1006748
18:00+27зсз81185100 7.1 1007793
21:00+27сз81187100 15.1 1008802